Time,TemperatureF,DewpointF,PressureIn,WindDirection,WindDirectionDegrees,WindSpeedMPH,WindSpeedGustMPH,Humidity,HourlyPrecipIn,Conditions,Clouds,dailyrainin,SolarRadiationWatts/m^2,SoftwareType,DateUTC
2013-04-25 00:03:00,59.0,57.0,-100.00,WSW,258,3.0,5.0,93,0.00,,,0.02,0.000000,,2013-04-25 04:03:00,
2013-04-25 00:33:00,59.0,58.0,-100.00,West,260,3.0,4.0,95,0.00,,,0.02,0.000000,,2013-04-25 04:33:00,
2013-04-25 00:43:00,59.0,58.0,-100.00,West,260,3.0,4.0,95,0.00,,,0.02,0.000000,,2013-04-25 04:43:00,
2013-04-25 00:52:00,59.0,58.0,-100.00,West,260,3.0,4.0,95,0.00,,,0.02,0.000000,,2013-04-25 04:52:00,
2013-04-25 01:03:00,59.0,58.0,-100.00,West,260,3.0,4.0,95,0.00,,,0.02,0.000000,,2013-04-25 05:03:00,
2013-04-25 01:32:00,57.0,54.0,-100.00,West,265,3.0,4.0,90,0.00,,,0.02,0.000000,,2013-04-25 05:32:00,
2013-04-25 01:42:00,57.0,54.0,-100.00,West,265,3.0,4.0,90,0.00,,,0.02,0.000000,,2013-04-25 05:42:00,
2013-04-25 01:52:00,57.0,54.0,-100.00,West,265,3.0,4.0,90,0.00,,,0.02,0.000000,,2013-04-25 05:52:00,
2013-04-25 02:02:00,57.0,54.0,-100.00,West,265,3.0,4.0,90,0.00,,,0.02,0.000000,,2013-04-25 06:02:00,
2013-04-25 03:32:00,55.0,50.0,-100.00,WNW,297,4.0,7.0,83,-99.99,,,0.02,0.000000,,2013-04-25 07:32:00,
2013-04-25 03:42:00,55.0,50.0,-100.00,WNW,297,4.0,7.0,83,-99.99,,,0.02,0.000000,,2013-04-25 07:42:00,
2013-04-25 03:52:00,55.0,50.0,-100.00,WNW,297,4.0,7.0,83,-99.99,,,0.02,0.000000,,2013-04-25 07:52:00,
2013-04-25 04:02:00,55.0,50.0,-100.00,WNW,297,4.0,7.0,83,-99.99,,,0.02,0.000000,,2013-04-25 08:02:00,
2013-04-25 04:32:00,52.0,48.0,-100.00,NW,308,5.0,6.0,86,0.00,,,0.02,0.000000,,2013-04-25 08:32:00,
2013-04-25 04:42:00,52.0,48.0,-100.00,NW,308,5.0,6.0,86,0.00,,,0.02,0.000000,,2013-04-25 08:42:00,
2013-04-25 04:52:00,52.0,48.0,-100.00,NW,308,5.0,6.0,86,0.00,,,0.02,0.000000,,2013-04-25 08:52:00,
2013-04-25 05:01:00,52.0,48.0,-100.00,NW,308,5.0,6.0,86,0.00,,,0.02,0.000000,,2013-04-25 09:01:00,
2013-04-25 05:33:00,50.0,48.0,-100.00,NW,315,5.0,7.0,92,0.00,,,0.02,0.000000,,2013-04-25 09:33:00,
2013-04-25 05:42:00,50.0,48.0,-100.00,NW,315,5.0,7.0,92,0.00,,,0.02,0.000000,,2013-04-25 09:42:00,
2013-04-25 05:53:00,50.0,48.0,-100.00,NW,315,5.0,7.0,92,0.00,,,0.02,0.000000,,2013-04-25 09:53:00,
2013-04-25 06:03:00,50.0,48.0,-100.00,NW,315,5.0,7.0,92,0.00,,,0.02,0.000000,,2013-04-25 10:03:00,
2013-04-25 06:33:00,48.0,39.0,-100.00,NW,307,5.0,8.0,70,0.00,,,0.02,0.000000,,2013-04-25 10:33:00,
2013-04-25 06:42:00,48.0,39.0,-100.00,NW,307,5.0,8.0,70,0.00,,,0.02,0.000000,,2013-04-25 10:42:00,
2013-04-25 06:53:00,48.0,39.0,-100.00,NW,307,5.0,8.0,70,0.00,,,0.02,0.000000,,2013-04-25 10:53:00,
2013-04-25 07:02:00,48.0,39.0,-100.00,NW,307,5.0,8.0,70,0.00,,,0.02,0.000000,,2013-04-25 11:02:00,
2013-04-25 07:33:00,45.0,36.0,-100.00,NW,315,4.0,6.0,71,0.00,,,0.02,3.000000,,2013-04-25 11:33:00,
2013-04-25 07:42:00,45.0,36.0,-100.00,NW,315,4.0,6.0,71,0.00,,,0.02,3.000000,,2013-04-25 11:42:00,
2013-04-25 07:52:00,45.0,36.0,-100.00,NW,315,4.0,6.0,71,0.00,,,0.02,3.000000,,2013-04-25 11:52:00,
2013-04-25 08:01:00,45.0,36.0,-100.00,NW,315,4.0,6.0,71,0.00,,,0.02,3.000000,,2013-04-25 12:01:00,
2013-04-25 09:32:00,57.0,42.0,-100.00,East,93,1.0,4.0,57,-99.99,,,-99.99,333.000000,,2013-04-25 13:32:00,
2013-04-25 09:42:00,57.0,42.0,-100.00,East,93,1.0,4.0,57,-99.99,,,-99.99,333.000000,,2013-04-25 13:42:00,
2013-04-25 09:53:00,57.0,42.0,-100.00,East,93,1.0,4.0,57,-99.99,,,-99.99,333.000000,,2013-04-25 13:53:00,
2013-04-25 10:02:00,57.0,42.0,-100.00,East,93,1.0,4.0,57,-99.99,,,-99.99,333.000000,,2013-04-25 14:02:00,
2013-04-25 10:32:00,62.0,43.0,-100.00,SE,128,3.0,6.0,50,0.00,,,-99.99,613.000000,,2013-04-25 14:32:00,
2013-04-25 10:42:00,62.0,43.0,-100.00,SE,128,3.0,6.0,50,0.00,,,-99.99,613.000000,,2013-04-25 14:42:00,
2013-04-25 10:52:00,62.0,43.0,-100.00,SE,128,3.0,6.0,50,0.00,,,-99.99,613.000000,,2013-04-25 14:52:00,
2013-04-25 11:02:00,62.0,43.0,-100.00,SE,128,3.0,6.0,50,0.00,,,-99.99,613.000000,,2013-04-25 15:02:00,
2013-04-25 11:33:00,66.0,44.0,-100.00,SE,133,3.0,5.0,45,0.00,,,0.02,832.000000,,2013-04-25 15:33:00,
2013-04-25 11:42:00,66.0,44.0,-100.00,SE,133,3.0,5.0,45,0.00,,,0.02,832.000000,,2013-04-25 15:42:00,
2013-04-25 11:53:00,66.0,44.0,-100.00,SE,133,3.0,5.0,45,0.00,,,0.02,832.000000,,2013-04-25 15:53:00,
2013-04-25 12:02:00,66.0,44.0,-100.00,SE,133,3.0,5.0,45,0.00,,,0.02,832.000000,,2013-04-25 16:02:00,
2013-04-25 12:33:00,68.0,43.0,-100.00,East,101,3.0,7.0,40,0.00,,,-99.99,1000.000000,,2013-04-25 16:33:00,
2013-04-25 12:43:00,68.0,43.0,-100.00,East,101,3.0,7.0,40,0.00,,,-99.99,1000.000000,,2013-04-25 16:43:00,
2013-04-25 12:53:00,68.0,43.0,-100.00,East,101,3.0,7.0,40,0.00,,,-99.99,1000.000000,,2013-04-25 16:53:00,
2013-04-25 13:02:00,68.0,43.0,-100.00,East,101,3.0,7.0,40,0.00,,,-99.99,1000.000000,,2013-04-25 17:02:00,
2013-04-25 13:32:00,71.0,44.0,-100.00,ESE,117,3.0,9.0,38,0.00,,,0.02,1095.000000,,2013-04-25 17:32:00,
2013-04-25 13:42:00,71.0,44.0,-100.00,ESE,117,3.0,9.0,38,0.00,,,0.02,1095.000000,,2013-04-25 17:42:00,
2013-04-25 13:53:00,71.0,44.0,-100.00,ESE,117,3.0,9.0,38,0.00,,,0.02,1095.000000,,2013-04-25 17:53:00,
2013-04-25 14:02:00,71.0,44.0,-100.00,ESE,117,3.0,9.0,38,0.00,,,0.02,1095.000000,,2013-04-25 18:02:00,
2013-04-25 14:32:00,74.0,45.0,-100.00,SSE,150,3.0,6.0,35,0.00,,,0.02,1116.000000,,2013-04-25 18:32:00,
2013-04-25 14:43:00,74.0,45.0,-100.00,SSE,150,3.0,6.0,35,0.00,,,0.02,1116.000000,,2013-04-25 18:43:00,
2013-04-25 14:53:00,74.0,45.0,-100.00,SSE,150,3.0,6.0,35,0.00,,,0.02,1116.000000,,2013-04-25 18:53:00,
2013-04-25 15:02:00,74.0,45.0,-100.00,SSE,150,3.0,6.0,35,0.00,,,0.02,1116.000000,,2013-04-25 19:02:00,
2013-04-25 15:32:00,75.0,45.0,-100.00,SSE,161,3.0,8.0,34,0.00,,,0.02,1067.000000,,2013-04-25 19:32:00,
2013-04-25 15:42:00,75.0,45.0,-100.00,SSE,161,3.0,8.0,34,0.00,,,0.02,1067.000000,,2013-04-25 19:42:00,
2013-04-25 15:52:00,75.0,45.0,-100.00,SSE,161,3.0,8.0,34,0.00,,,0.02,1067.000000,,2013-04-25 19:52:00,
2013-04-25 16:02:00,75.0,45.0,-100.00,SSE,161,3.0,8.0,34,0.00,,,0.02,1067.000000,,2013-04-25 20:02:00,
2013-04-25 16:32:00,76.0,39.0,-100.00,SSW,213,3.0,7.0,26,0.00,,,0.02,959.000000,,2013-04-25 20:32:00,
2013-04-25 16:43:00,76.0,39.0,-100.00,SSW,213,3.0,7.0,26,0.00,,,0.02,959.000000,,2013-04-25 20:43:00,
2013-04-25 16:52:00,76.0,39.0,-100.00,SSW,213,3.0,7.0,26,0.00,,,0.02,959.000000,,2013-04-25 20:52:00,
2013-04-25 17:01:00,76.0,39.0,-100.00,SSW,213,3.0,7.0,26,0.00,,,0.02,959.000000,,2013-04-25 21:01:00,
2013-04-25 17:33:00,75.0,38.0,-100.00,SE,129,3.0,8.0,26,0.00,,,0.02,784.000000,,2013-04-25 21:33:00,
2013-04-25 17:42:00,75.0,38.0,-100.00,SE,129,3.0,8.0,26,0.00,,,0.02,784.000000,,2013-04-25 21:42:00,
2013-04-25 17:53:00,75.0,38.0,-100.00,SE,129,3.0,8.0,26,0.00,,,0.02,784.000000,,2013-04-25 21:53:00,
2013-04-25 18:03:00,75.0,38.0,-100.00,SE,129,3.0,8.0,26,0.00,,,0.02,784.000000,,2013-04-25 22:03:00,
2013-04-25 18:33:00,70.0,34.0,-100.00,SE,128,3.0,8.0,26,0.00,,,0.01,450.000000,,2013-04-25 22:33:00,
2013-04-25 18:42:00,70.0,34.0,-100.00,SE,128,3.0,8.0,26,0.00,,,0.01,450.000000,,2013-04-25 22:42:00,
2013-04-25 18:53:00,70.0,34.0,-100.00,SE,128,3.0,8.0,26,0.00,,,0.01,450.000000,,2013-04-25 22:53:00,
2013-04-25 19:02:00,70.0,34.0,-100.00,SE,128,3.0,8.0,26,0.00,,,0.01,450.000000,,2013-04-25 23:02:00,
2013-04-25 19:32:00,68.0,35.0,-100.00,NW,317,2.0,7.0,29,0.00,,,0.00,49.000000,,2013-04-25 23:32:00,
2013-04-25 19:42:00,68.0,35.0,-100.00,NW,317,2.0,7.0,29,0.00,,,0.00,49.000000,,2013-04-25 23:42:00,
2013-04-25 19:52:00,68.0,35.0,-100.00,NW,317,2.0,7.0,29,0.00,,,0.00,49.000000,,2013-04-25 23:52:00,
2013-04-25 20:01:00,68.0,35.0,-100.00,NW,317,2.0,7.0,29,0.00,,,0.00,49.000000,,2013-04-26 00:01:00,
2013-04-25 20:32:00,64.0,12.0,-100.00,NW,308,4.0,9.0,13,0.00,,,0.00,21.000000,,2013-04-26 00:32:00,
2013-04-25 20:42:00,64.0,12.0,-100.00,NW,308,4.0,9.0,13,0.00,,,0.00,21.000000,,2013-04-26 00:42:00,
2013-04-25 20:52:00,64.0,12.0,-100.00,NW,308,4.0,9.0,13,0.00,,,0.00,21.000000,,2013-04-26 00:52:00,
2013-04-25 21:01:00,64.0,12.0,-100.00,NW,308,4.0,9.0,13,0.00,,,0.00,21.000000,,2013-04-26 01:01:00,
2013-04-25 21:32:00,60.0,14.0,-100.00,NW,304,5.0,7.0,16,0.00,,,0.00,1.000000,,2013-04-26 01:32:00,
2013-04-25 21:42:00,60.0,14.0,-100.00,NW,304,5.0,7.0,16,0.00,,,0.00,1.000000,,2013-04-26 01:42:00,
2013-04-25 21:52:00,60.0,14.0,-100.00,NW,304,5.0,7.0,16,0.00,,,0.00,1.000000,,2013-04-26 01:52:00,
2013-04-25 22:02:00,60.0,14.0,-100.00,NW,304,5.0,7.0,16,0.00,,,0.00,1.000000,,2013-04-26 02:02:00,
2013-04-25 22:32:00,58.0,18.0,-100.00,NW,319,5.0,10.0,21,0.00,,,0.00,0.000000,,2013-04-26 02:32:00,
2013-04-25 22:42:00,58.0,18.0,-100.00,NW,319,5.0,10.0,21,0.00,,,0.00,0.000000,,2013-04-26 02:42:00,
2013-04-25 22:52:00,58.0,18.0,-100.00,NW,319,5.0,10.0,21,0.00,,,0.00,0.000000,,2013-04-26 02:52:00,
2013-04-25 23:01:00,58.0,18.0,-100.00,NW,319,5.0,10.0,21,0.00,,,0.00,0.000000,,2013-04-26 03:01:00,
2013-04-25 23:33:00,55.0,21.0,-100.00,NW,312,5.0,7.0,26,0.00,,,0.00,0.000000,,2013-04-26 03:33:00,
2013-04-25 23:43:00,55.0,21.0,-100.00,NW,312,5.0,7.0,26,0.00,,,0.00,0.000000,,2013-04-26 03:43:00,
2013-04-25 23:53:00,55.0,21.0,-100.00,NW,312,5.0,7.0,26,0.00,,,0.00,0.000000,,2013-04-26 03:53:00,